User: anonymous   Login
Location: Unspecified
(0.0000°N, 0.0000°E)
Time: 16:34:05
(UTC+00:00)
Language:

EDRS-C - Orbit

View from above orbital plane
View from above orbital plane
View from above satellite
View from above satellite

Ground track
Ground track

The orbit data is extracted from the following two-line orbital elements,

1 44475U 19049A   21174.15913148  .00000155  00000-0  00000-0 0  9995
2 44475   0.0736 273.0917 0000539 142.0247 304.8869  1.00271167  6951
Epoch (UTC): 23 June 2021 03:49:08
Eccentricity: 0.0000539
inclination: 0.0736°
perigee height: 35784 km
apogee height: 35788 km
right ascension of ascending node: 273.0917°
argument of perigee: 142.0247°
revolutions per day: 1.00271167
mean anomaly at epoch: 304.8869°
orbit number at epoch: 695

The dashed part of the orbit path shows where the satellite is in the earth's shadow,  

DLR